Chehalis, WA

3:24 AM PST on December 17, 2017 (GMT -0800)
Chehalis-Centralia

Weather History for KCLS - October, 2012

Change the Weather History Date:

Wednesday, October 24, 2012

  Actual Average (KTDO) Record (KTDO)
Temperature  
Mean Temperature 46 °F -  
Max Temperature 50 °F 61 °F 74 °F (1965)
Min Temperature 41 °F 41 °F 29 °F (1983)
Degree Days  
Heating Degree Days 20    
Moisture  
Dew Point 41 °F    
Average Humidity 85    
Maximum Humidity 100    
Minimum Humidity 71    
Precipitation  
Precipitation 0.00 in - - ()
Sea Level Pressure  
Sea Level Pressure 29.98 in    
Wind  
Wind Speed 4 mph (South)    
Max Wind Speed 12 mph    
Max Gust Speed 18 mph    
Visibility 8 miles    
Events Rain    
Averages and records for this station are not official NWS values.
T = Trace of Precipitation, MM = Missing Value Source: NWS Daily Summary

Daily Weather History Graph

Daily Weather History Graph

Search for Another Location

Airport or City:

Trip Planner

Search our weather history database for the weather conditions in past years. The results will help you decide how hot, cold, wet, or windy it might be!

Date:

Astronomy

Oct. 24, 2012 Rise Set
Actual Time 7:43 AM PDT 6:08 PM PDT
Civil Twilight 7:12 AM PDT 6:39 PM PDT
Nautical Twilight 6:36 AM PDT 7:14 PM PDT
Astronomical Twilight 6:01 AM PDT 7:49 PM PDT
Moon 3:41 PM PDT (10/24) 2:27 AM PDT (10/24)
Length of Visible Light 11h 27m
Length of Day
10h 24m
Waxing Gibbous, 77% of the Moon is Illuminated
Oct 24
Waxing Gibbous
Oct 29
Full
Nov 6
Last Quarter
Nov 13
New
Nov 20
First Quarter

Hourly Weather History & Observations

Time (PDT) Temp. Windchill Dew Point Humidity Pressure Visibility Wind Dir Wind Speed Gust Speed Precip Events Conditions
12:15 AM 44.6 °F - 41.0 °F 87% 29.86 in 10.0 mi Calm Calm - N/A   Unknown
12:35 AM 44.6 °F 41.4 °F 41.0 °F 87% 29.87 in 10.0 mi SSE 5.8 mph - N/A Rain Light Rain
12:55 AM 44.6 °F 42.2 °F 41.0 °F 87% 29.87 in 7.0 mi South 4.6 mph - N/A   Unknown
1:15 AM 44.6 °F 42.2 °F 41.0 °F 87% 29.87 in 7.0 mi South 4.6 mph - N/A   Unknown
1:35 AM 44.6 °F 43.1 °F 41.0 °F 87% 29.87 in 10.0 mi SSE 3.5 mph - N/A   Unknown
1:55 AM 44.6 °F - 41.0 °F 87% 29.87 in 9.0 mi Calm Calm - N/A   Unknown
2:15 AM 44.6 °F - 41.0 °F 87% 29.87 in 10.0 mi Calm Calm - N/A   Unknown
2:35 AM 44.6 °F 43.1 °F 41.0 °F 87% 29.87 in 10.0 mi South 3.5 mph - N/A   Unknown
2:55 AM 44.6 °F 40.7 °F 41.0 °F 87% 29.88 in 9.0 mi South 6.9 mph - N/A Rain Light Rain
3:15 AM 44.6 °F 41.4 °F 41.0 °F 87% 29.87 in 5.0 mi South 5.8 mph - N/A Rain Light Rain
3:35 AM 44.6 °F 42.2 °F 41.0 °F 87% 29.87 in 9.0 mi South 4.6 mph - N/A Rain Light Rain
3:55 AM 42.8 °F 38.6 °F 41.0 °F 93% 29.87 in 8.0 mi South 6.9 mph - N/A Rain Light Rain
4:15 AM 42.8 °F 39.3 °F 39.2 °F 87% 29.87 in 10.0 mi South 5.8 mph - N/A   Unknown
4:35 AM 44.6 °F 41.4 °F 41.0 °F 87% 29.87 in 8.0 mi South 5.8 mph - N/A   Unknown
4:55 AM 42.8 °F 39.3 °F 39.2 °F 87% 29.88 in 10.0 mi SSW 5.8 mph - N/A   Unknown
5:15 AM 42.8 °F 39.3 °F 39.2 °F 87% 29.88 in 7.0 mi SSW 5.8 mph - N/A   Unknown
5:35 AM 42.8 °F - 39.2 °F 87% 29.88 in 10.0 mi Calm Calm - N/A   Unknown
5:55 AM 44.6 °F 43.1 °F 39.2 °F 81% 29.89 in 10.0 mi South 3.5 mph - N/A   Unknown
6:15 AM 44.6 °F - 39.2 °F 81% 29.89 in 9.0 mi Calm Calm - N/A   Unknown
6:55 AM 44.6 °F - 41.0 °F 87% 29.90 in 9.0 mi Calm Calm - N/A   Unknown
7:15 AM 44.6 °F 41.4 °F 39.2 °F 81% 29.90 in 7.0 mi South 5.8 mph - N/A   Unknown
7:35 AM 44.6 °F 42.2 °F 39.2 °F 81% 29.90 in 7.0 mi SSE 4.6 mph - N/A   Unknown
8:15 AM 44.6 °F 41.4 °F 41.0 °F 87% 29.92 in 5.0 mi South 5.8 mph - N/A   Mist
8:35 AM 44.6 °F 43.1 °F 41.0 °F 87% 29.93 in 7.0 mi South 3.5 mph - N/A   Unknown
9:15 AM 44.6 °F 42.2 °F 41.0 °F 87% 29.93 in 6.0 mi South 4.6 mph - N/A   Mist
9:35 AM 46.4 °F 43.5 °F 41.0 °F 81% 29.94 in 10.0 mi South 5.8 mph - N/A   Unknown
9:55 AM 46.4 °F 41.9 °F 41.0 °F 81% 29.94 in 7.0 mi SE 9.2 mph - N/A   Unknown
10:15 AM 48.2 °F - 41.0 °F 76% 29.95 in 5.0 mi South 6.9 mph - N/A   Haze
10:35 AM 48.2 °F - 41.0 °F 76% 29.96 in 5.0 mi South 6.9 mph - N/A   Haze
10:55 AM 48.2 °F - 41.0 °F 76% 29.96 in 5.0 mi SSW 6.9 mph - N/A   Haze
11:35 AM 50.0 °F - 41.0 °F 71% 29.97 in 6.0 mi SSW 6.9 mph - N/A   Haze
11:55 AM 50.0 °F - 41.0 °F 71% 29.97 in 5.0 mi South 11.5 mph - N/A   Haze
12:15 PM 48.2 °F - 41.0 °F 76% 29.97 in 5.0 mi SSW 11.5 mph - N/A   Haze
12:35 PM 50.0 °F - 41.0 °F 71% 29.97 in 9.0 mi South 10.4 mph - N/A   Unknown
12:55 PM 50.0 °F - 41.0 °F 71% 29.98 in 6.0 mi South 10.4 mph - N/A   Haze
1:15 PM 50.0 °F - 41.0 °F 71% 29.98 in 6.0 mi South 11.5 mph 16.1 mph N/A   Haze
1:35 PM 50.0 °F - 41.0 °F 71% 29.98 in 9.0 mi South 9.2 mph - N/A   Unknown
1:55 PM 50.0 °F - 41.0 °F 71% 29.99 in 9.0 mi South 6.9 mph - N/A   Unknown
2:15 PM 50.0 °F - 41.0 °F 71% 29.99 in 9.0 mi South 9.2 mph - N/A   Unknown
2:55 PM 50.0 °F - 41.0 °F 71% 30.00 in 10.0 mi SSW 8.1 mph - N/A   Unknown
3:35 PM 50.0 °F - 41.0 °F 71% 30.00 in 10.0 mi South 9.2 mph - N/A   Unknown
3:55 PM 50.0 °F - 41.0 °F 71% 30.01 in 10.0 mi South 6.9 mph - N/A   Unknown
4:15 PM 50.0 °F - 41.0 °F 71% 30.02 in 10.0 mi SW 5.8 mph - N/A   Unknown
4:35 PM 50.0 °F - 42.8 °F 76% 30.03 in 10.0 mi SW 4.6 mph - N/A Rain Light Rain
4:55 PM 46.4 °F 42.4 °F 42.8 °F 87% 30.04 in 3.0 mi SSW 8.1 mph 18.4 mph N/A Rain Light Rain
5:15 PM 44.6 °F - 42.8 °F 93% 30.04 in 5.0 mi Calm Calm - N/A Rain Light Rain
6:35 PM 42.8 °F - 41.0 °F 93% 30.06 in 7.0 mi Calm Calm - N/A   Unknown
6:55 PM 42.8 °F - 41.0 °F 93% 30.07 in 8.0 mi Calm Calm - N/A   Unknown
7:15 PM 41.0 °F - 41.0 °F 100% 30.08 in 8.0 mi Calm Calm - N/A   Unknown
7:35 PM 41.0 °F - 41.0 °F 100% 30.09 in 10.0 mi Calm Calm - N/A   Unknown
7:55 PM 42.8 °F - 41.0 °F 93% 30.09 in 8.0 mi Calm Calm - N/A   Unknown
8:15 PM 42.8 °F - 41.0 °F 93% 30.10 in 10.0 mi Calm Calm - N/A   Unknown
8:35 PM 42.8 °F - 41.0 °F 93% 30.10 in 10.0 mi Calm Calm - N/A   Unknown
8:55 PM 42.8 °F - 41.0 °F 93% 30.11 in 10.0 mi Calm Calm - N/A   Unknown
9:15 PM 42.8 °F - 41.0 °F 93% 30.12 in 10.0 mi Calm Calm - N/A   Unknown
9:35 PM 42.8 °F - 42.8 °F 100% 30.13 in 10.0 mi Calm Calm - N/A   Unknown
9:55 PM 42.8 °F - 42.8 °F 100% 30.14 in 10.0 mi Calm Calm - N/A   Unknown
10:15 PM 42.8 °F - 42.8 °F 100% 30.15 in 10.0 mi Calm Calm - N/A   Unknown
10:35 PM 44.6 °F - 42.8 °F 93% 30.15 in 10.0 mi Calm Calm - N/A   Unknown
10:55 PM 44.6 °F - 42.8 °F 93% 30.16 in 9.0 mi Calm Calm - N/A   Unknown
11:15 PM 44.6 °F - 42.8 °F 93% 30.17 in 10.0 mi Calm Calm - N/A   Unknown
11:35 PM 44.6 °F - 42.8 °F 93% 30.17 in 9.0 mi Calm Calm - N/A   Unknown
11:55 PM 44.6 °F - 42.8 °F 93% 30.18 in 9.0 mi Calm Calm - N/A   Unknown